| time (UTC) | temp F | wind direction | speed MPH | gust MPH | rain 1hr in | rain 24hr in | rain mn in | humidity % | barometer mb |
| 20260904090121 | 52 | 0 | 0.0 | 1.0 | 0.00 | 0.00 | 0.00 | 54 | 1011.0 |
| 20260904085122 | 52 | 201 | 0.0 | 1.0 | 0.00 | 0.00 | 0.00 | 57 | 1010.9 |
| 20260904084121 | 52 | 187 | 1.0 | 5.0 | 0.00 | 0.00 | 0.00 | 59 | 1011.0 |
| 20260904083122 | 51 | 229 | 1.0 | 3.0 | 0.00 | 0.00 | 0.00 | 61 | 1011.1 |
| 20260904082122 | 51 | 246 | 0.0 | 3.0 | 0.00 | 0.00 | 0.00 | 60 | 1011.1 |
| 20260904081122 | 51 | 262 | 0.0 | 2.0 | 0.00 | 0.00 | 0.00 | 63 | 1011.1 |
| 20260904080122 | 51 | 0 | 0.0 | 0.0 | 0.00 | 0.00 | 0.00 | 61 | 1011.0 |
| 20260904075122 | 51 | 262 | 0.0 | 1.0 | 0.00 | 0.00 | 0.00 | 62 | 1011.0 |
| 20260904074121 | 51 | 263 | 0.0 | 1.0 | 0.00 | 0.00 | 0.00 | 63 | 1011.0 |
| 20260904073143 | 52 | 264 | 0.0 | 1.0 | 0.00 | 0.00 | 0.00 | 62 | 1011.1 |
| 20260904072123 | 52 | 264 | 0.0 | 1.0 | 0.00 | 0.00 | 0.00 | 62 | 1011.1 |
| 20260904071122 | 52 | 0 | 0.0 | 0.0 | 0.00 | 0.00 | 0.00 | 61 | 1011.1 |
| 20260904070122 | 52 | 262 | 0.0 | 3.0 | 0.00 | 0.00 | 0.00 | 61 | 1011.3 |
| 20260904065122 | 53 | 275 | 0.0 | 1.0 | 0.00 | 0.00 | 0.00 | 60 | 1011.1 |
| 20260904064122 | 53 | 277 | 0.0 | 2.0 | 0.00 | 0.00 | 0.00 | 59 | 1011.0 |
| 20260904063122 | 53 | 287 | 0.0 | 1.0 | 0.00 | 0.00 | 0.00 | 58 | 1011.0 |
| 20260904062122 | 54 | 286 | 0.0 | 2.0 | 0.00 | 0.00 | 0.00 | 56 | 1010.9 |
| 20260904061122 | 54 | 0 | 0.0 | 0.0 | 0.00 | 0.00 | 0.00 | 56 | 1010.9 |
| 20260904055124 | 55 | 0 | 0.0 | 0.0 | 0.00 | 0.00 | 0.00 | 54 | 1010.9 |
| 20260904054143 | 56 | 285 | 0.0 | 2.0 | 0.00 | 0.00 | 0.00 | 53 | 1011.0 |
| 20260904053122 | 56 | 284 | 0.0 | 1.0 | 0.00 | 0.00 | 0.00 | 51 | 1011.0 |
| 20260904052145 | 57 | 0 | 0.0 | 0.0 | 0.00 | 0.00 | 0.00 | 51 | 1010.9 |
| 20260904051122 | 57 | 0 | 0.0 | 0.0 | 0.00 | 0.00 | 0.00 | 49 | 1010.8 |
| 20260904050144 | 57 | 287 | 1.0 | 3.0 | 0.00 | 0.00 | 0.00 | 47 | 1010.9 |
| 20260904045122 | 58 | 285 | 1.0 | 4.0 | 0.00 | 0.00 | 0.00 | 48 | 1011.1 |
| 20260904044129 | 58 | 288 | 0.0 | 1.0 | 0.00 | 0.00 | 0.00 | 47 | 1011.1 |
| 20260904043143 | 58 | 288 | 0.0 | 2.0 | 0.00 | 0.00 | 0.00 | 46 | 1011.1 |
| 20260904042122 | 58 | 286 | 0.0 | 3.0 | 0.00 | 0.00 | 0.00 | 46 | 1011.2 |
| 20260904041143 | 59 | 284 | 0.0 | 2.0 | 0.00 | 0.00 | 0.00 | 44 | 1011.1 |
| 20260904040123 | 59 | 281 | 1.0 | 4.0 | 0.00 | 0.00 | 0.00 | 45 | 1011.0 |
| 20260904035125 | 60 | 293 | 1.0 | 4.0 | 0.00 | 0.00 | 0.00 | 43 | 1010.9 |
| 20260904034144 | 60 | 311 | 1.0 | 3.0 | 0.00 | 0.00 | 0.00 | 41 | 1010.9 |
| 20260904033122 | 61 | 294 | 0.0 | 1.0 | 0.00 | 0.00 | 0.00 | 43 | 1010.9 |
| 20260904032145 | 62 | 298 | 0.0 | 3.0 | 0.00 | 0.00 | 0.00 | 41 | 1011.0 |
| 20260904031122 | 63 | 0 | 0.0 | 0.0 | 0.00 | 0.00 | 0.00 | 38 | 1010.9 |
| 20260904030124 | 63 | 336 | 0.0 | 3.0 | 0.00 | 0.00 | 0.00 | 35 | 1010.9 |
| 20260904025122 | 63 | 335 | 3.0 | 6.0 | 0.00 | 0.00 | 0.00 | 36 | 1010.8 |
| 20260904024143 | 64 | 275 | 1.0 | 6.0 | 0.00 | 0.00 | 0.00 | 37 | 1010.8 |
| 20260904023122 | 64 | 280 | 0.0 | 2.0 | 0.00 | 0.00 | 0.00 | 36 | 1010.7 |
| 20260904022143 | 65 | 278 | 1.0 | 6.0 | 0.00 | 0.00 | 0.00 | 36 | 1010.8 |
| 20260904021122 | 67 | 277 | 2.0 | 6.0 | 0.00 | 0.00 | 0.00 | 34 | 1010.9 |
| 20260904020122 | 69 | 304 | 0.0 | 2.0 | 0.00 | 0.00 | 0.00 | 34 | 1010.8 |
| 20260904015122 | 70 | 321 | 1.0 | 4.0 | 0.00 | 0.00 | 0.00 | 31 | 1010.8 |
| 20260904014122 | 71 | 252 | 1.0 | 3.0 | 0.00 | 0.00 | 0.00 | 35 | 1010.9 |
| 20260904013122 | 73 | 251 | 0.0 | 2.0 | 0.00 | 0.00 | 0.00 | 30 | 1010.8 |
| 20260904012122 | 74 | 0 | 0.0 | 1.0 | 0.00 | 0.00 | 0.00 | 33 | 1010.9 |
| 20260904011143 | 75 | 0 | 0.0 | 1.0 | 0.00 | 0.00 | 0.00 | 35 | 1010.9 |
| 20260904010122 | 75 | 251 | 1.0 | 3.0 | 0.00 | 0.00 | 0.00 | 30 | 1011.1 |
| 20260904005122 | 76 | 250 | 1.0 | 3.0 | 0.00 | 0.00 | 0.00 | 26 | 1011.1 |
| 20260904004122 | 77 | 252 | 0.0 | 2.0 | 0.00 | 0.00 | 0.00 | 29 | 1011.1 |
| 20260904003122 | 77 | 259 | 1.0 | 2.0 | 0.00 | 0.00 | 0.00 | 24 | 1011.1 |
| 20260904002144 | 77 | 267 | 1.0 | 3.0 | 0.00 | 0.00 | 0.00 | 25 | 1011.2 |
| 20260904001122 | 78 | 274 | 3.0 | 4.0 | 0.00 | 0.00 | 0.00 | 21 | 1011.2 |
| 20260904000143 | 78 | 240 | 1.0 | 4.0 | 0.00 | 0.00 | 0.00 | 21 | 1011.3 |
| 20260903235122 | 79 | 255 | 1.0 | 4.0 | 0.00 | 0.00 | 0.00 | 21 | 1011.1 |
| 20260903234143 | 79 | 218 | 2.0 | 4.0 | 0.00 | 0.00 | 0.00 | 20 | 1011.2 |
| 20260903233122 | 80 | 201 | 3.0 | 8.0 | 0.00 | 0.00 | 0.00 | 17 | 1011.2 |
| 20260903232122 | 80 | 202 | 2.0 | 4.0 | 0.00 | 0.00 | 0.00 | 20 | 1011.3 |
| 20260903231122 | 81 | 197 | 3.0 | 9.0 | 0.00 | 0.00 | 0.00 | 15 | 1011.3 |
| 20260903230122 | 81 | 195 | 3.0 | 9.0 | 0.00 | 0.00 | 0.00 | 17 | 1011.5 |
| 20260903225122 | 82 | 199 | 3.0 | 7.0 | 0.00 | 0.00 | 0.00 | 20 | 1011.6 |
| 20260903224143 | 83 | 197 | 3.0 | 9.0 | 0.00 | 0.00 | 0.00 | 17 | 1011.8 |
| 20260903223122 | 83 | 194 | 2.0 | 7.0 | 0.00 | 0.00 | 0.00 | 16 | 1011.7 |
| 20260903222142 | 82 | 180 | 2.0 | 7.0 | 0.00 | 0.00 | 0.00 | 16 | 1011.9 |
| 20260903221142 | 82 | 200 | 3.0 | 6.0 | 0.00 | 0.00 | 0.00 | 16 | 1012.0 |
| 20260903220121 | 82 | 188 | 3.0 | 8.0 | 0.00 | 0.00 | 0.00 | 16 | 1012.1 |
| 20260903215121 | 81 | 194 | 4.0 | 10.0 | 0.00 | 0.00 | 0.00 | 16 | 1012.2 |
| 20260903214121 | 81 | 193 | 2.0 | 5.0 | 0.00 | 0.00 | 0.00 | 17 | 1012.4 |
| 20260903213121 | 81 | 201 | 3.0 | 12.0 | 0.00 | 0.00 | 0.00 | 19 | 1012.5 |
| 20260903212121 | 81 | 199 | 2.0 | 7.0 | 0.00 | 0.00 | 0.00 | 15 | 1012.6 |
| 20260903211121 | 82 | 204 | 4.0 | 9.0 | 0.00 | 0.00 | 0.00 | 17 | 1012.7 |
| 20260903210121 | 81 | 181 | 2.0 | 6.0 | 0.00 | 0.00 | 0.00 | 21 | 1013.0 |
| 20260903205121 | 81 | 196 | 3.0 | 11.0 | 0.00 | 0.00 | 0.00 | 17 | 1013.2 |
| 20260903204121 | 81 | 198 | 3.0 | 10.0 | 0.00 | 0.00 | 0.00 | 15 | 1013.3 |
| 20260903203121 | 80 | 206 | 4.0 | 9.0 | 0.00 | 0.00 | 0.00 | 16 | 1013.4 |
| 20260903202142 | 80 | 198 | 3.0 | 10.0 | 0.00 | 0.00 | 0.00 | 15 | 1013.5 |
| 20260903201142 | 80 | 195 | 4.0 | 12.0 | 0.00 | 0.00 | 0.00 | 16 | 1013.5 |
| 20260903200121 | 80 | 188 | 2.0 | 7.0 | 0.00 | 0.00 | 0.00 | 18 | 1013.8 |
| 20260903195121 | 79 | 193 | 3.0 | 11.0 | 0.00 | 0.00 | 0.00 | 16 | 1014.0 |
| 20260903194121 | 79 | 196 | 3.0 | 7.0 | 0.00 | 0.00 | 0.00 | 18 | 1014.3 |
| 20260903193121 | 78 | 201 | 2.0 | 5.0 | 0.00 | 0.00 | 0.00 | 22 | 1014.3 |
| 20260903192121 | 78 | 199 | 3.0 | 8.0 | 0.00 | 0.00 | 0.00 | 19 | 1014.5 |
| 20260903191121 | 77 | 213 | 4.0 | 8.0 | 0.00 | 0.00 | 0.00 | 16 | 1014.5 |
| 20260903190121 | 77 | 204 | 6.0 | 9.0 | 0.00 | 0.00 | 0.00 | 17 | 1014.6 |
| 20260903185121 | 77 | 189 | 4.0 | 10.0 | 0.00 | 0.00 | 0.00 | 16 | 1014.7 |
| 20260903184121 | 76 | 196 | 3.0 | 9.0 | 0.00 | 0.00 | 0.00 | 17 | 1014.8 |
| 20260903183121 | 75 | 290 | 2.0 | 10.0 | 0.00 | 0.00 | 0.00 | 19 | 1014.8 |
| 20260903182142 | 75 | 332 | 1.0 | 3.0 | 0.00 | 0.00 | 0.00 | 20 | 1015.1 |
| 20260903181121 | 75 | 282 | 1.0 | 4.0 | 0.00 | 0.00 | 0.00 | 21 | 1015.1 |
| 20260903180121 | 75 | 242 | 0.0 | 4.0 | 0.00 | 0.00 | 0.00 | 24 | 1015.2 |
| 20260903175121 | 74 | 186 | 0.0 | 2.0 | 0.00 | 0.00 | 0.00 | 30 | 1015.4 |
| 20260903174121 | 72 | 186 | 1.0 | 3.0 | 0.00 | 0.00 | 0.00 | 31 | 1015.4 |
| 20260903173121 | 71 | 190 | 0.0 | 3.0 | 0.00 | 0.00 | 0.00 | 36 | 1015.4 |
| 20260903172125 | 70 | 214 | 1.0 | 4.0 | 0.00 | 0.00 | 0.00 | 38 | 1015.4 |
| 20260903171121 | 69 | 204 | 2.0 | 5.0 | 0.00 | 0.00 | 0.00 | 37 | 1015.6 |
| 20260903170143 | 68 | 232 | 0.0 | 2.0 | 0.00 | 0.00 | 0.00 | 39 | 1015.6 |
| 20260903165122 | 67 | 230 | 1.0 | 2.0 | 0.00 | 0.00 | 0.00 | 37 | 1015.6 |
| 20260903164121 | 66 | 231 | 0.0 | 1.0 | 0.00 | 0.00 | 0.00 | 39 | 1015.6 |
| 20260903163121 | 64 | 236 | 1.0 | 3.0 | 0.00 | 0.00 | 0.00 | 46 | 1015.6 |
| 20260903162143 | 63 | 244 | 1.0 | 3.0 | 0.00 | 0.00 | 0.00 | 42 | 1015.7 |
| 20260903161142 | 61 | 262 | 0.0 | 3.0 | 0.00 | 0.00 | 0.00 | 47 | 1015.7 |
| 20260903160142 | 60 | 0 | 0.0 | 0.0 | 0.00 | 0.00 | 0.00 | 47 | 1015.8 |
| 20260903155121 | 58 | 273 | 0.0 | 2.0 | 0.00 | 0.00 | 0.00 | 52 | 1016.0 |
| 20260903154121 | 57 | 275 | 0.0 | 2.0 | 0.00 | 0.00 | 0.00 | 56 | 1016.0 |
| 20260903153121 | 55 | 0 | 0.0 | 0.0 | 0.00 | 0.00 | 0.00 | 61 | 1016.1 |
| 20260903152121 | 53 | 265 | 0.0 | 2.0 | 0.00 | 0.00 | 0.00 | 65 | 1016.2 |
| 20260903151121 | 51 | 302 | 0.0 | 1.0 | 0.00 | 0.00 | 0.00 | 66 | 1016.1 |
| 20260903150142 | 50 | 302 | 0.0 | 1.0 | 0.00 | 0.00 | 0.00 | 67 | 1016.2 |
| 20260903145121 | 49 | 302 | 0.0 | 1.0 | 0.00 | 0.00 | 0.00 | 68 | 1016.3 |
| 20260903144121 | 49 | 0 | 0.0 | 0.0 | 0.00 | 0.00 | 0.00 | 70 | 1016.2 |
| 20260903143121 | 48 | 302 | 0.0 | 1.0 | 0.00 | 0.00 | 0.00 | 70 | 1016.3 |
| 20260903142121 | 48 | 302 | 0.0 | 1.0 | 0.00 | 0.00 | 0.00 | 69 | 1016.3 |
| 20260903141121 | 48 | 0 | 0.0 | 0.0 | 0.00 | 0.00 | 0.00 | 69 | 1016.1 |
| 20260903140142 | 47 | 0 | 0.0 | 0.0 | 0.00 | 0.00 | 0.00 | 69 | 1016.1 |
| 20260903135121 | 47 | 302 | 0.0 | 1.0 | 0.00 | 0.00 | 0.00 | 66 | 1016.1 |
| 20260903134121 | 46 | 0 | 0.0 | 0.0 | 0.00 | 0.00 | 0.00 | 64 | 1015.8 |
| 20260903133121 | 46 | 302 | 0.0 | 2.0 | 0.00 | 0.00 | 0.00 | 64 | 1015.7 |
| 20260903132121 | 47 | 0 | 0.0 | 0.0 | 0.00 | 0.00 | 0.00 | 65 | 1015.6 |
| 20260903131121 | 47 | 0 | 0.0 | 0.0 | 0.00 | 0.00 | 0.00 | 63 | 1015.4 |
| 20260903130121 | 47 | 298 | 0.0 | 2.0 | 0.00 | 0.00 | 0.00 | 63 | 1015.4 |
| 20260903125121 | 47 | 0 | 0.0 | 0.0 | 0.00 | 0.00 | 0.00 | 63 | 1015.4 |
| 20260903124122 | 47 | 306 | 1.0 | 3.0 | 0.00 | 0.00 | 0.00 | 63 | 1015.2 |
| 20260903123121 | 47 | 311 | 0.0 | 1.0 | 0.00 | 0.00 | 0.00 | 62 | 1015.1 |
| 20260903120122 | 49 | 0 | 0.0 | 0.0 | 0.00 | 0.00 | 0.00 | 61 | 1015.1 |
| 20260903115143 | 49 | 0 | 0.0 | 1.0 | 0.00 | 0.00 | 0.00 | 60 | 1015.0 |
| 20260903114122 | 49 | 309 | 0.0 | 1.0 | 0.00 | 0.00 | 0.00 | 60 | 1015.1 |
| 20260903113122 | 49 | 0 | 0.0 | 0.0 | 0.00 | 0.00 | 0.00 | 60 | 1014.9 |
| 20260903112143 | 49 | 0 | 0.0 | 0.0 | 0.00 | 0.00 | 0.00 | 59 | 1014.9 |
| 20260903111122 | 50 | 308 | 0.0 | 2.0 | 0.00 | 0.00 | 0.00 | 58 | 1014.8 |
| 20260903110143 | 50 | 0 | 0.0 | 0.0 | 0.00 | 0.00 | 0.00 | 58 | 1014.7 |
| 20260903105122 | 51 | 0 | 0.0 | 0.0 | 0.00 | 0.00 | 0.00 | 56 | 1014.6 |
| 20260903104122 | 51 | 306 | 0.0 | 1.0 | 0.00 | 0.00 | 0.00 | 55 | 1014.5 |
| 20260903103122 | 51 | 306 | 0.0 | 2.0 | 0.00 | 0.00 | 0.00 | 53 | 1014.5 |
| 20260903102122 | 52 | 303 | 0.0 | 1.0 | 0.00 | 0.00 | 0.00 | 52 | 1014.4 |
| 20260903101122 | 52 | 331 | 0.0 | 3.0 | 0.00 | 0.00 | 0.00 | 52 | 1014.3 |
| 20260903100122 | 52 | 341 | 1.0 | 4.0 | 0.00 | 0.00 | 0.00 | 52 | 1014.4 |
| 20260903095122 | 53 | 352 | 0.0 | 1.0 | 0.00 | 0.00 | 0.00 | 55 | 1014.4 |
| 20260903094122 | 54 | 0 | 0.0 | 0.0 | 0.00 | 0.00 | 0.00 | 56 | 1014.4 |
| 20260903093122 | 55 | 0 | 0.0 | 0.0 | 0.00 | 0.00 | 0.00 | 56 | 1014.4 |
| 20260903092122 | 55 | 0 | 0.0 | 0.0 | 0.00 | 0.00 | 0.00 | 54 | 1014.3 |
| 20260903091122 | 56 | 0 | 0.0 | 0.0 | 0.00 | 0.00 | 0.00 | 51 | 1014.2 |